Location: ???????
(52.3000°N, 54.4667°E)
Time: 06:10:52
(UTC+00:00)

Cosmos 1939 Rocket - Pass Details

Date: 24 January 2020
Orbit: 534 x 583 km, 97.4° (Epoch: 24 February)

Event Time Altitude Azimuth Distance (km) Brightness Sun altitude
Rises 13:40:40 0° 125° (SE) 2,710 6.0 -7.3°
Reaches altitude 10° 13:43:12 10° 108° (ESE) 1,830 5.0 -7.7°
Maximum altitude 13:46:05 20° 61° (ENE) 1,328 4.2 -8.1°
Drops below altitude 10° 13:49:01 10° 14° (NNE) 1,862 5.2 -8.5°
Sets 13:51:36 0° 357° (N) 2,773 6.2 -8.9°
